EHI
2 3 3 3 2 1 0 0 0 0 0 0 0 0 0 0 0 0 0 0 0 0 0 0 0 0 0 0 0 0 0 1 2 1 1 1 1 1 0 0 1 0 0
3 3 3 3 1 0 1 1 0 0 0 0 0 0 0 0 0 0 0 0 0 0 0 0 0 0 0 0 0 0 0 2 3 1 0 0 0 0 0 1 1 0 0
3 3 3 2 1 1 2 2 1 1 0 0 0 0 0 0 0 0 0 0 0 0 0 0 0 0 1 0 0 0 1 1 1 1 0 0 0 1 1 1 1 0 1
3 3 2 3 3 3 3 3 3 2 1 0 1 0 0 0 0 0 0 0 0 0 0 0 0 0 0 0 0 0 1 0 0 0 0 0 0 1 2 2 1 0 1
3 3 3 3 3 4 4 3 3 2 1 0 0 0 0 0 0 0 0 0 0 0 0 0 0 0 0 0 0 0 0 0 0 0 0 0 0 0 1 2 1 0 1
3 3 3 3 4 4 4 3 3 2 1 0 0 0 0 0 0 0 0 0 0 0 0 0 0 0 0 0 0 0 0 0 0 0 0 0 0 0 0 1 2 1 1
3 3 3 3 3 3 2 3 3 2 1 0 0 0 0 0 0 0 0 0 0 0 0 0 0 0 0 0 0 0 0 0 0 0 0 0 0 0 0 2 3 3 2
2 1 1 2 1 1 1 1 1 1 0 0 0 0 0 0 0 0 0 0 0 0 0 0 0 0 0 0 0 0 0 0 0 0 0 0 0 0 0 2 3 3 4
1 0 0 0 0 0 0 0 0 0 0 0 0 0 0 0 0 0 0 0 0 0 0 1 1 1 0 0 0 0 0 0 1 1 1 1 0 0 0 2 3 3 4
0 0 0 0 0 0 0 0 0 0 0 0 0 0 0 0 0 0 0 0 0 0 1 2 2 1 0 0 0 1 0 0 1 2 3 2 1 0 1 1 3 4 4
0 0 0 0 0 0 0 0 0 0 0 0 0 1 0 0 0 0 0 0 0 0 1 2 2 1 0 0 0 0 0 0 1 2 3 3 2 2 1 1 3 5 6
0 0 0 0 0 0 0 0 0 0 0 0 0 0 0 0 0 0 0 0 0 0 0 1 1 0 0 0 0 0 0 0 0 1 2 3 3 3 3 3 4 7 8
0 0 0 0 0 0 0 0 0 0 0 0 0 0 0 0 0 0 0 0 0 0 0 0 0 0 0 0 0 0 0 0 0 0 1 2 3 3 4 5 5 6 7
0 0 0 0 0 0 0 0 0 0 0 0 0 0 0 0 0 0 0 0 0 0 0 0 0 0 0 0 0 0 0 0 0 0 0 1 2 2 3 3 4 5 5
0 0 0 0 0 0 0 0 0 0 0 0 0 0 0 0 0 0 0 0 0 0 0 0 0 0 0 0 0 0 0 0 0 0 0 1 1 1 1 1 1 2 3
0 0 0 0 0 0 0 0 0 0 0 0 0 0 0 0 0 0 0 0 0 0 0 0 0 0 0 0 0 0 0 0 0 0 0 0 0 0 0 0 0 1 1
0 0 0 0 0 0 0 0 0 0 0 0 0 0 0 0 0 0 0 0 0 0 0 0 0 0 0 0 0 0 0 0 0 0 0 0 0 0 0 0 0 0 0
0 0 0 0 0 0 0 0 0 0 0 0 0 0 0 0 0 0 0 0 0 0 0 0 0 0 0 0 0 0 0 0 0 0 0 0 0 0 0 0 0 0 0
0 0 0 0 0 0 0 0 0 0 0 0 0 0 0 0 0 0 0 0 0 0 0 0 0 0 0 0 0 0 0 0 0 0 0 0 0 0 0 1 0 0 0
0 0 0 0 0 0 0 0 0 0 0 0 0 0 0 0 0 0 0 0 0 0 0 0 0 0 0 0 0 0 0 0 0 0 0 0 0 0 0 0 0 0 0
0 0 0 0 0 0 0 0 0 0 0 0 0 0 0 0 0 0 0 0 0 0 0 0 0 0 0 0 0 0 0 0 0 0 0 0 0 0 0 0 0 0 0
0 0 0 0 0 0 0 0 0 0 0 0 0 0 0 0 0 0 0 0 0 0 0 0 0 0 0 0 0 0 0 0 0 0 0 0 0 0 0 0 0 0 0
0 0 0 0 0 0 0 0 0 0 0 0 0 0 0 0 0 0 0 0 0 0 0 0 0 0 0 0 0 0 0 0 0 0 0 0 0 0 0 0 0 0 0
0 0 0 0 0 0 0 0 0 0 0 0 0 0 0 0 0 0 0 0 0 0 0 0 0 0 0 0 0 0 0 0 0 0 0 0 0 0 0 0 0 0 0
0 0 0 0 0 0 0 0 0 0 0 0 0 0 0 0 0 0 0 0 0 0 0 0 0 0 0 0 0 0 0 0 0 0 0 0 0 0 0 0 0 0 0
0 0 0 0 0 0 0 0 0 0 0 0 0 0 0 0 0 0 0 0 0 0 0 0 0 0 0 0 0 0 0 0 0 0 0 0 0 0 0 0 0 0 0
Wind_Speed
2 3 4 3 5 5 6 6 6 6 6 7 7 7 8 8 8 8 7 7 7 7 7 7 7 7 7 7 7 7 7 7 7 7 7 7 7 7 6 5 3 4 7
2 3 4 4 5 5 6 6 6 6 7 7 7 7 7 8 8 8 7 7 8 8 8 7 7 8 8 8 7 7 7 7 7 7 6 7 8 7 7 5 4 5 6
3 3 4 5 5 5 6 6 6 7 7 7 7 7 8 8 8 8 8 8 8 8 8 8 8 8 8 8 8 8 8 8 7 5 2 4 7 8 6 6 5 6 6
3 4 5 5 5 5 6 7 7 7 7 8 8 8 8 8 8 8 8 8 8 8 8 8 8 8 8 8 9 9 8 8 6 3 2 5 5 8 6 5 5 5 6
4 4 7 5 6 6 7 8 8 7 8 8 8 8 8 8 8 8 8 9 9 9 9 8 8 9 9 9 8 8 8 7 5 3 5 5 5 7 6 5 5 5 5
5 5 7 5 6 6 7 8 8 8 8 8 8 8 8 8 8 8 8 8 9 9 9 8 8 8 8 8 8 8 7 5 2 5 4 4 4 6 5 5 5 5 5
5 5 7 6 6 6 7 8 8 8 8 8 8 8 8 8 8 8 8 8 8 8 8 8 8 8 9 9 9 8 7 4 4 5 4 4 6 6 5 5 5 4 5
5 5 7 7 7 7 7 8 8 7 7 7 7 8 8 8 8 8 8 8 8 9 9 9 8 9 9 9 9 9 8 5 5 5 5 5 7 6 5 5 4 4 5
5 5 5 6 7 8 8 8 8 8 7 7 7 8 8 8 8 8 8 8 9 9 9 9 9 10 10 10 10 9 8 7 5 4 5 5 6 5 5 5 5 5 6
5 5 5 5 5 6 7 9 8 7 7 7 7 7 7 6 7 7 8 8 9 9 9 10 10 10 10 10 10 9 6 3 6 6 5 7 7 6 6 6 6 6 6
5 5 5 5 5 5 5 7 5 6 6 4 6 6 3 3 5 5 9 9 9 9 9 10 9 9 7 9 9 6 3 4 6 5 6 8 8 7 7 8 8 8 8
5 5 4 4 4 4 4 4 3 4 4 4 4 4 3 4 4 5 8 8 8 8 9 9 7 5 3 4 5 2 3 6 5 5 7 9 8 8 9 9 10 10 10
4 4 4 4 4 4 3 3 2 2 3 3 4 4 3 3 3 3 3 4 5 4 5 5 4 4 5 4 4 4 5 5 4 5 8 10 9 9 10 10 11 11 11
4 4 4 3 3 3 3 3 2 2 2 2 3 4 3 2 2 3 3 3 3 3 4 4 3 5 6 6 6 6 6 4 5 5 7 11 11 10 10 11 11 12 12
4 4 3 2 3 3 3 2 2 2 2 3 2 2 3 2 2 3 3 3 3 3 3 4 4 5 5 6 6 6 6 6 6 6 6 11 12 11 11 11 12 11 11
3 3 3 3 3 3 3 2 2 2 2 2 2 2 2 2 2 2 3 3 3 3 3 3 5 4 4 4 5 6 6 6 6 6 6 7 10 11 11 11 12 11 11
3 3 4 3 3 3 3 2 2 1 2 2 1 2 2 2 2 2 2 3 3 3 3 3 5 4 4 4 5 5 5 5 5 6 5 4 6 10 11 12 12 11 10
3 3 4 3 3 3 3 2 2 1 2 1 1 1 2 2 3 2 2 2 3 2 2 2 2 3 3 3 3 3 4 4 5 5 4 4 4 5 8 11 11 10 10
4 4 5 4 3 3 3 2 1 1 1 1 1 1 1 2 2 2 2 2 2 2 2 2 2 2 2 2 2 3 3 3 4 4 4 5 5 4 5 7 9 10 10
4 4 4 4 3 4 3 2 2 1 1 1 1 1 1 1 2 2 2 2 2 2 1 1 2 2 2 1 2 3 3 3 3 4 4 4 4 5 5 5 4 7 10
4 4 4 4 4 3 3 2 2 1 1 1 1 1 2 2 2 1 1 2 1 1 1 2 2 2 1 1 2 2 3 3 3 3 3 3 4 4 4 4 4 4 5
5 4 5 5 5 4 3 2 1 1 1 0 0 1 2 2 2 2 2 2 2 1 2 2 2 1 1 1 1 2 2 3 2 2 2 2 3 3 3 4 4 4 4
5 5 4 5 5 5 4 2 2 2 1 2 2 1 1 2 2 3 2 2 2 2 2 2 3 3 1 1 1 2 2 0 2 2 2 2 2 2 2 2 3 4 4
6 5 5 5 5 5 5 4 4 3 2 2 1 1 2 2 3 3 3 3 3 2 2 3 2 2 3 2 1 1 2 2 2 2 2 2 2 1 2 2 2 3 3
6 5 5 5 5 5 5 5 4 3 2 2 2 3 3 2 3 3 3 3 3 2 3 2 2 3 2 2 1 1 1 1 4 2 2 2 2 1 1 1 1 1 2
6 5 5 5 4 4 4 5 5 4 4 3 3 3 3 2 2 4 4 4 4 3 3 3 3 3 3 3 2 2 2 2 2 2 2 2 2 2 2 1 1 1 1
Wind_Direction
66 64 66 65 81 79 86 86 86 89 89 89 91 93 92 91 91 89 88 87 84 77 73 73 73 72 73 74 76 77 75 73 75 74 73 75 75 73 76 81 93 106 90
71 79 82 79 86 86 88 85 84 90 90 90 88 91 93 92 91 90 87 85 82 77 73 73 73 72 72 72 75 76 75 74 75 72 76 89 80 71 69 66 50 65 78
84 91 105 86 88 86 87 86 83 86 88 89 88 87 89 88 86 85 84 85 81 76 71 69 72 72 71 70 72 75 73 72 72 72 83 83 87 78 69 66 65 69 73
86 86 86 90 84 82 87 86 82 78 82 86 86 84 85 86 84 83 82 80 78 76 72 71 71 70 69 70 72 73 71 69 65 50 70 65 71 79 70 66 64 68 70
87 85 87 83 87 85 87 89 88 84 85 86 85 83 81 83 85 85 82 78 76 75 74 72 71 70 68 68 71 71 69 68 64 49 59 60 64 74 69 69 66 70 72
90 90 93 79 88 89 91 95 93 92 91 88 88 84 81 81 81 83 82 79 77 75 73 71 73 72 71 70 70 68 64 56 61 63 61 61 67 74 71 72 68 72 75
90 91 95 82 87 89 88 92 93 94 93 90 88 84 81 82 83 81 80 77 74 72 72 72 74 73 70 68 67 64 59 39 50 63 61 63 63 68 73 73 69 72 78
88 87 94 95 85 83 81 83 82 90 90 87 83 80 80 80 84 83 81 78 75 74 73 71 72 73 70 67 64 60 47 14 60 62 66 66 63 64 70 70 70 72 79
93 91 91 100 106 97 79 71 72 79 83 82 78 78 76 78 80 82 83 79 78 76 73 69 69 70 68 66 62 57 49 21 37 50 59 61 64 65 66 67 73 75 79
101 97 96 95 96 105 103 81 72 76 78 80 80 77 77 89 94 90 90 79 78 76 74 73 70 69 68 65 60 54 38 20 44 48 47 59 58 66 67 70 75 74 76
107 103 103 102 98 93 90 96 99 98 90 99 102 99 105 86 84 91 72 72 76 76 75 74 72 68 72 75 63 46 15 44 49 45 50 50 55 64 69 69 71 74 74
114 110 109 112 108 102 94 97 88 89 92 84 79 84 75 69 66 72 88 82 81 84 88 79 77 84 67 70 76 52 47 48 48 52 54 47 54 64 72 74 74 75 73
116 117 113 117 110 104 103 88 77 81 80 79 76 79 75 78 87 82 90 109 103 102 89 94 92 66 62 59 50 54 49 45 47 51 50 45 54 65 72 73 74 74 73
120 123 121 124 124 120 113 108 108 108 94 78 74 73 72 70 68 72 75 73 79 77 75 71 67 71 62 58 55 56 60 52 53 57 54 44 51 63 69 72 74 74 73
133 143 140 139 136 130 117 113 119 103 90 89 75 72 74 78 77 82 77 75 76 79 82 75 71 68 62 54 52 54 60 61 61 61 68 55 49 55 63 69 71 73 74
149 149 143 152 146 149 141 143 121 107 108 90 88 86 88 85 85 84 82 79 73 70 70 78 76 71 66 59 58 58 57 60 60 62 62 71 60 52 55 63 67 69 72
170 159 151 151 155 158 145 126 113 114 107 105 98 86 96 91 92 91 77 82 82 80 84 75 78 71 68 68 67 65 63 54 57 63 61 56 70 68 58 58 63 69 69
185 167 150 161 170 158 146 142 133 121 96 86 80 60 79 96 91 88 92 92 90 89 87 85 82 80 78 69 68 65 69 62 56 58 65 70 63 66 72 61 62 67 70
191 174 163 163 169 160 152 143 132 121 108 92 94 67 70 96 105 108 96 96 97 96 90 95 94 86 85 75 76 73 66 66 61 55 58 60 71 69 74 80 72 66 66
188 182 166 158 168 157 163 164 155 142 125 114 121 127 100 115 113 109 121 117 111 118 117 127 126 117 85 86 87 78 66 77 71 54 49 52 56 61 57 67 84 81 68
184 189 176 183 175 169 174 185 184 174 178 163 153 164 168 170 156 139 151 135 125 128 147 150 141 143 129 146 150 128 106 82 70 72 54 52 61 57 57 62 60 66 86
194 201 195 195 190 185 187 192 184 177 189 160 194 200 198 186 174 178 180 164 157 160 184 180 181 202 152 206 248 206 170 147 112 79 74 58 62 74 54 51 61 65 58
200 203 208 206 198 194 189 183 162 160 178 182 198 196 201 202 199 201 190 189 187 195 196 206 203 209 198 188 288 295 273 174 140 127 86 82 65 64 69 56 55 60 67
202 203 208 206 204 196 191 199 205 212 213 215 201 185 191 200 202 209 202 202 200 211 216 219 215 227 223 209 186 294 321 345 249 168 158 125 85 63 63 74 60 62 67
198 199 206 205 203 197 204 204 216 223 227 212 199 194 201 196 207 213 216 210 208 214 222 225 224 236 231 239 220 195 199 239 266 255 189 172 161 143 94 76 88 70 75
194 192 199 200 196 197 207 209 215 219 224 220 222 214 209 199 210 214 217 216 213 215 220 225 225 223 236 233 237 229 227 232 234 241 232 202 192 159 163 161 186 130 106